FW4639 Weather Reports


Display with metric or nautical units.
time (UTC)temp
F
wind
direction
speed
MPH
gust
MPH
rain 1hr
in
rain 24hr
in
rain mn
in
humidity
%
barometer
mb
20260505070101 58 94 0.0 0.0 0.00 0.00 0.00 75 1016.0
20260505064557 59 94 0.0 0.0 0.00 0.00 0.00 74 1016.0
20260505063109 59 93 0.0 0.0 0.00 0.00 0.00 73 1016.0
20260505061552 59 93 0.0 0.0 0.00 0.00 0.00 73 1015.9
20260505060051 60 84 0.0 0.0 0.00 0.00 0.00 72 1016.0
20260505054550 60 84 0.0 0.0 0.00 0.00 0.00 72 1016.0
20260505053049 60 84 0.0 0.0 0.00 0.00 0.00 71 1016.1
20260505051546 61 197 0.0 0.0 0.00 0.00 0.00 71 1016.3
20260505041539 62 145 0.0 0.0 0.00 0.00 0.00 68 1016.2
20260505040037 63 146 0.0 0.0 0.00 0.00 0.00 68 1016.3
20260505034538 63 122 0.0 1.0 0.00 0.00 0.00 67 1016.2
20260505033036 64 198 0.0 0.0 0.00 0.00 0.00 66 1016.2
20260505031538 64 125 0.0 1.0 0.00 0.00 0.00 66 1016.2
20260505030034 65 122 0.0 0.0 0.00 0.00 0.00 65 1016.2
20260505024533 65 179 0.0 1.0 0.00 0.00 0.00 64 1016.2
20260505023036 66 122 0.0 0.0 0.00 0.00 0.00 62 1016.1
20260505021536 66 126 0.0 1.0 0.00 0.00 0.00 60 1016.0
20260505020037 67 120 0.0 1.0 0.00 0.00 0.00 55 1016.0
20260505014531 67 153 0.0 0.0 0.00 0.00 0.00 51 1015.8
20260505013032 67 157 0.0 0.0 0.00 0.00 0.00 50 1015.5
20260505011535 67 157 0.0 0.0 0.00 0.00 0.00 49 1015.3
20260505010048 68 157 0.0 0.0 0.00 0.00 0.00 48 1015.1
20260505004528 68 157 0.0 0.0 0.00 0.00 0.00 47 1014.8
20260505003032 69 158 0.0 0.0 0.00 0.00 0.00 46 1014.8
20260505001527 70 158 0.0 0.0 0.00 0.00 0.00 44 1014.5
20260505000040 72 158 0.0 0.0 0.00 0.00 0.00 42 1014.5
20260504234526 73 157 0.0 1.0 0.00 0.00 0.00 40 1014.4
20260504233026 74 148 0.0 1.0 0.00 0.00 0.00 38 1014.1
20260504231524 74 141 0.0 1.0 0.00 0.00 0.00 37 1014.1
20260504230037 75 141 0.0 0.0 0.00 0.00 0.00 34 1014.1
20260504224524 76 164 0.0 0.0 0.00 0.00 0.00 34 1014.0
20260504223022 76 141 0.0 0.0 0.00 0.00 0.00 33 1014.1
20260504221537 77 84 0.0 0.0 0.00 0.00 0.00 33 1014.2
20260504220023 78 156 0.0 1.0 0.00 0.00 0.00 32 1014.1
20260504214518 77 214 0.0 3.0 0.00 0.00 0.00 32 1014.2
20260504213017 77 257 0.0 1.0 0.00 0.00 0.00 34 1014.2
20260504211515 77 63 0.0 2.0 0.00 0.00 0.00 33 1014.3
20260504210020 77 267 0.0 2.0 0.00 0.00 0.00 32 1014.3
20260504204514 77 251 0.0 4.0 0.00 0.00 0.00 32 1014.4
20260504203013 77 164 0.0 2.0 0.00 0.00 0.00 34 1014.5
20260504201510 77 250 0.0 2.0 0.00 0.00 0.00 34 1014.6
20260504200008 77 238 0.0 2.0 0.00 0.00 0.00 34 1014.7
20260504194506 77 225 0.0 2.0 0.00 0.00 0.00 35 1014.8
20260504193006 77 195 0.0 3.0 0.00 0.00 0.00 35 1015.0
20260504191503 76 224 0.0 4.0 0.00 0.00 0.00 34 1015.1
20260504190001 76 229 0.0 4.0 0.00 0.00 0.00 32 1015.4
20260504184558 76 214 0.0 2.0 0.00 0.00 0.00 33 1015.6
20260504183057 75 264 0.0 3.0 0.00 0.00 0.00 34 1015.7
20260504181556 75 229 0.0 4.0 0.00 0.00 0.00 34 1016.0
20260504180053 75 223 0.0 3.0 0.00 0.00 0.00 34 1016.0
20260504174552 75 252 0.0 2.0 0.00 0.00 0.00 34 1016.2
20260504173049 75 251 0.0 3.0 0.00 0.00 0.00 36 1016.4
20260504171545 75 280 0.0 2.0 0.00 0.00 0.00 40 1016.8
20260504081525 48 105 0.0 0.0 0.00 0.00 0.00 82 1018.2